,,,PA_Meas_PMT16A,,PR_Meas_QMR101_102,,RH_Meas_QMH101,,SR_Meas_QMS101,,TA_Meas_QMH101,,GenWind,,GenWind,
date,time,status,PA,status,PR,status,RH,status,SR,status,TA,status,DirAvg,status,SpdAvg,
2011-03-15, 00:00:04,VALID,999.76,VALID,0,VALID,92.3413,VALID,0,VALID,23.7579,VALID,37,VALID,0.335938,
2011-03-15, 00:01:04,VALID,999.758,VALID,0,VALID,92.3489,VALID,0,VALID,23.7988,VALID,37,VALID,0.351563,
2011-03-15, 00:02:04,VALID,999.708,VALID,0,VALID,92.3566,VALID,0,VALID,23.7988,VALID,37,VALID,0.377734,
2011-03-15, 00:03:04,VALID,999.687,VALID,0,VALID,92.3642,VALID,0,VALID,23.7988,VALID,37,VALID,0.352344,
2011-03-15, 00:04:04,VALID,999.689,VALID,0,VALID,92.4023,VALID,0,VALID,23.7988,VALID,37,VALID,0.469141,
2011-03-15, 00:05:04,VALID,999.643,VALID,0,VALID,92.3871,VALID,0,VALID,23.7988,VALID,37,VALID,0.614062,
2011-03-15, 00:06:04,VALID,999.637,VALID,0,VALID,92.3947,VALID,0,VALID,23.8183,VALID,37,VALID,0.735937,
2011-03-15, 00:07:04,VALID,999.6,VALID,0,VALID,92.3947,VALID,0,VALID,23.7988,VALID,37,VALID,0.8375,
2011-03-15, 00:08:04,VALID,999.58,VALID,0,VALID,92.3871,VALID,0,VALID,23.7988,VALID,37,VALID,0.761328,
2011-03-15, 00:09:04,VALID,999.561,VALID,0,VALID,92.41,VALID,0,VALID,23.8183,VALID,37,VALID,0.681641,
2011-03-15, 00:10:04,VALID,999.557,VALID,0,VALID,92.3871,VALID,0,VALID,23.7988,VALID,37,VALID,0.583984,
2011-03-15, 00:11:04,VALID,999.528,VALID,0,VALID,92.3718,VALID,0.112286,VALID,23.7775,VALID,37,VALID,0.489062,
2011-03-15, 00:12:04,VALID,999.505,VALID,0,VALID,92.3566,VALID,0,VALID,23.7775,VALID,37,VALID,0.523828,
2011-03-15, 00:13:04,VALID,999.504,VALID,0,VALID,92.3413,VALID,0,VALID,23.7793,VALID,37,VALID,0.491406,
2011-03-15, 00:14:04,VALID,999.502,VALID,0,VALID,92.3489,VALID,0,VALID,23.7793,VALID,37,VALID,0.446875,
2011-03-15, 00:15:04,VALID,999.451,VALID,0,VALID,92.3337,VALID,0,VALID,23.7793,VALID,37,VALID,0.245703,
2011-03-15, 00:16:04,VALID,999.452,VALID,0,VALID,92.3031,VALID,0,VALID,23.7579,VALID,37,VALID,0.00546875,
2011-03-15, 00:17:04,VALID,999.44,VALID,0,VALID,92.3108,VALID,0,VALID,23.7597,VALID,37,VALID,0,
2011-03-15, 00:18:04,VALID,999.383,VALID,0,VALID,92.265,VALID,0,VALID,23.7384,VALID,37,VALID,0,
2011-03-15, 00:19:04,VALID,999.403,VALID,0,VALID,92.265,VALID,0,VALID,23.7793,VALID,37,VALID,0,
2011-03-15, 00:20:04,VALID,999.365,VALID,0,VALID,92.2421,VALID,0,VALID,23.7597,VALID,37,VALID,0,
2011-03-15, 00:21:04,VALID,999.368,VALID,0,VALID,92.2345,VALID,0,VALID,23.7597,VALID,37,VALID,0,
2011-03-15, 00:22:04,VALID,999.343,VALID,0,VALID,92.2192,VALID,0,VALID,23.7597,VALID,37,VALID,0.452734,
2011-03-15, 00:23:04,VALID,999.34,VALID,0,VALID,92.2421,VALID,0,VALID,23.7597,VALID,37,VALID,0.601953,
2011-03-15, 00:24:04,VALID,999.331,VALID,0,VALID,92.204,VALID,0,VALID,23.7597,VALID,37,VALID,0.570313,
2011-03-15, 00:25:04,VALID,999.333,VALID,0,VALID,92.1658,VALID,0,VALID,23.7402,VALID,37,VALID,0.410156,
2011-03-15, 00:26:04,VALID,999.332,VALID,0,VALID,92.1582,VALID,0,VALID,23.7402,VALID,37,VALID,0.296875,
2011-03-15, 00:27:04,VALID,999.354,VALID,0,VALID,92.1506,VALID,0,VALID,23.7402,VALID,37,VALID,0.332031,
2011-03-15, 00:28:04,VALID,999.362,VALID,0,VALID,92.1353,VALID,0,VALID,23.7402,VALID,37,VALID,0.339063,
2011-03-15, 00:29:04,VALID,999.369,VALID,0,VALID,92.1277,VALID,0,VALID,23.7189,VALID,37,VALID,0.45,
2011-03-15, 00:30:04,VALID,999.338,VALID,0,VALID,92.12,VALID,0,VALID,23.7402,VALID,37,VALID,0.33125,
2011-03-15, 00:31:04,VALID,999.342,VALID,0,VALID,92.1048,VALID,0,VALID,23.7402,VALID,37,VALID,0.518359,
2011-03-15, 00:32:04,VALID,999.339,VALID,0,VALID,92.1048,VALID,0,VALID,23.7384,VALID,42,VALID,0.655469,
2011-03-15, 00:33:04,VALID,999.34,VALID,0,VALID,92.0895,VALID,0,VALID,23.7597,VALID,71,VALID,0.615625,
2011-03-15, 00:34:04,VALID,999.334,VALID,0,VALID,92.0666,VALID,0,VALID,23.7402,VALID,87,VALID,0.605859,
2011-03-15, 00:35:04,VALID,999.336,VALID,0,VALID,92.0361,VALID,0,VALID,23.7402,VALID,100,VALID,0.699609,
2011-03-15, 00:36:04,VALID,999.327,VALID,0,VALID,92.0437,VALID,0,VALID,23.7384,VALID,100,VALID,0.539844,
2011-03-15, 00:37:04,VALID,999.339,VALID,0,VALID,92.0056,VALID,0,VALID,23.7384,VALID,100,VALID,0.539063,
2011-03-15, 00:38:04,VALID,999.321,VALID,0,VALID,91.9903,VALID,0,VALID,23.7384,VALID,100,VALID,0.507422,
2011-03-15, 00:39:04,VALID,999.278,VALID,0,VALID,91.998,VALID,0,VALID,23.7597,VALID,100,VALID,0.643359,
2011-03-15, 00:40:04,VALID,999.29,VALID,0,VALID,91.9827,VALID,0,VALID,23.7597,VALID,100,VALID,0.380078,
2011-03-15, 00:41:04,VALID,999.283,VALID,0,VALID,91.9903,VALID,0,VALID,23.7597,VALID,100,VALID,0.474219,
2011-03-15, 00:42:04,VALID,999.284,VALID,0,VALID,91.9827,VALID,0,VALID,23.7597,VALID,100,VALID,0.4875,
2011-03-15, 00:43:04,VALID,999.284,VALID,0,VALID,91.9674,VALID,0,VALID,23.7579,VALID,100,VALID,0.401172,
2011-03-15, 00:44:04,VALID,999.28,VALID,0,VALID,91.9903,VALID,0,VALID,23.7793,VALID,100,VALID,0.336719,
2011-03-15, 00:45:04,VALID,999.252,VALID,0,VALID,91.9522,VALID,0,VALID,23.7597,VALID,100,VALID,0.189453,
2011-03-15, 00:46:04,VALID,999.245,VALID,0,VALID,91.9598,VALID,0,VALID,23.7597,VALID,100,VALID,0.262109,
2011-03-15, 00:47:04,VALID,999.262,VALID,0,VALID,91.9293,VALID,0,VALID,23.7597,VALID,100,VALID,0.341797,
2011-03-15, 00:48:04,VALID,999.233,VALID,0,VALID,91.9369,VALID,0,VALID,23.7207,VALID,100,VALID,0.389062,
2011-03-15, 00:49:04,VALID,999.241,VALID,0,VALID,91.9217,VALID,0,VALID,23.7207,VALID,100,VALID,0.30625,
2011-03-15, 00:50:04,VALID,999.252,VALID,0,VALID,91.9369,VALID,0,VALID,23.7207,VALID,100,VALID,0.237109,
2011-03-15, 00:51:04,VALID,999.223,VALID,0,VALID,91.9369,VALID,0,VALID,23.7012,VALID,100,VALID,0.206641,
2011-03-15, 00:52:04,VALID,999.216,VALID,0,VALID,91.9598,VALID,0,VALID,23.7207,VALID,100,VALID,0.0949219,
2011-03-15, 00:53:04,VALID,999.228,VALID,0,VALID,91.9674,VALID,0,VALID,23.7207,VALID,100,VALID,0.00585938,
2011-03-15, 00:54:04,VALID,999.207,VALID,0,VALID,91.9827,VALID,0,VALID,23.7207,VALID,100,VALID,0.2125,
2011-03-15, 00:55:04,VALID,999.211,VALID,0,VALID,91.998,VALID,0,VALID,23.7012,VALID,100,VALID,0.334375,
2011-03-15, 00:56:04,VALID,999.187,VALID,0,VALID,92.0132,VALID,0,VALID,23.7012,VALID,100,VALID,0.324609,
2011-03-15, 00:57:04,VALID,999.21,VALID,0,VALID,92.0361,VALID,0,VALID,23.7225,VALID,100,VALID,0.373047,
2011-03-15, 00:58:04,VALID,999.211,VALID,0,VALID,92.0285,VALID,0,VALID,23.7012,VALID,100,VALID,0.365234,
2011-03-15, 00:59:04,VALID,999.21,VALID,0,VALID,92.0437,VALID,0,VALID,23.7012,VALID,100,VALID,0.394531,
2011-03-15, 01:00:04,VALID,999.186,VALID,0,VALID,92.059,VALID,0,VALID,23.7012,VALID,100,VALID,0.410547,
2011-03-15, 01:01:04,VALID,999.193,VALID,0,VALID,92.0819,VALID,0,VALID,23.7012,VALID,100,VALID,0.330469,
2011-03-15, 01:02:04,VALID,999.172,VALID,0,VALID,92.0666,VALID,0,VALID,23.703,VALID,100,VALID,0.282031,
2011-03-15, 01:03:04,VALID,999.185,VALID,0,VALID,92.0743,VALID,0,VALID,23.6817,VALID,100,VALID,0.294531,
2011-03-15, 01:04:04,VALID,999.173,VALID,0,VALID,92.0971,VALID,0,VALID,23.6622,VALID,100,VALID,0.453906,
2011-03-15, 01:05:04,VALID,999.172,VALID,0,VALID,92.0971,VALID,0,VALID,23.6622,VALID,100,VALID,0.530078,
2011-03-15, 01:06:04,VALID,999.134,VALID,0,VALID,92.1429,VALID,0,VALID,23.6622,VALID,100,VALID,0.515234,
2011-03-15, 01:07:04,VALID,999.123,VALID,0,VALID,92.1734,VALID,0,VALID,23.6622,VALID,83,VALID,0.697656,
2011-03-15, 01:08:04,VALID,999.113,VALID,0,VALID,92.1887,VALID,0,VALID,23.6604,VALID,83,VALID,0.573438,
2011-03-15, 01:09:04,VALID,999.082,VALID,0,VALID,92.1963,VALID,0,VALID,23.6622,VALID,83,VALID,0.426172,
2011-03-15, 01:10:04,VALID,999.092,VALID,0,VALID,92.2192,VALID,0,VALID,23.6604,VALID,83,VALID,0.184766,
2011-03-15, 01:11:04,VALID,999.056,VALID,0,VALID,92.2345,VALID,0,VALID,23.6817,VALID,83,VALID,0.0257812,
2011-03-15, 01:12:04,VALID,999.058,VALID,0,VALID,92.2192,VALID,0,VALID,23.6817,VALID,83,VALID,0,
2011-03-15, 01:13:04,VALID,999.017,VALID,0,VALID,92.2268,VALID,0,VALID,23.6622,VALID,83,VALID,0,
2011-03-15, 01:14:04,VALID,998.998,VALID,0,VALID,92.2421,VALID,0,VALID,23.6427,VALID,83,VALID,0,
2011-03-15, 01:15:04,VALID,998.98,VALID,0,VALID,92.2345,VALID,0,VALID,23.6622,VALID,83,VALID,0,
2011-03-15, 01:16:04,VALID,998.983,VALID,0,VALID,92.2497,VALID,0,VALID,23.6427,VALID,83,VALID,0,
2011-03-15, 01:17:04,VALID,998.977,VALID,0,VALID,92.2421,VALID,0,VALID,23.6214,VALID,83,VALID,0,
2011-03-15, 01:18:04,VALID,998.964,VALID,0,VALID,92.265,VALID,0,VALID,23.6427,VALID,83,VALID,0,
2011-03-15, 01:19:04,VALID,998.971,VALID,0,VALID,92.2803,VALID,0,VALID,23.6232,VALID,83,VALID,0,
2011-03-15, 01:20:04,VALID,998.937,VALID,0,VALID,92.2955,VALID,0,VALID,23.6232,VALID,83,VALID,0.0214844,
2011-03-15, 01:21:04,VALID,998.913,VALID,0,VALID,92.3108,VALID,0,VALID,23.6232,VALID,83,VALID,0.287109,
2011-03-15, 01:22:04,VALID,998.89,VALID,0,VALID,92.3413,VALID,0,VALID,23.6427,VALID,83,VALID,0.262891,
2011-03-15, 01:23:04,VALID,998.894,VALID,0,VALID,92.3413,VALID,0,VALID,23.6232,VALID,83,VALID,0.225,
2011-03-15, 01:24:04,VALID,998.865,VALID,0,VALID,92.3337,VALID,0,VALID,23.6232,VALID,83,VALID,0.114063,
2011-03-15, 01:25:04,VALID,998.849,VALID,0,VALID,92.3566,VALID,0,VALID,23.6232,VALID,83,VALID,0,
2011-03-15, 01:26:04,VALID,998.823,VALID,0,VALID,92.3642,VALID,0,VALID,23.6036,VALID,83,VALID,0,
2011-03-15, 01:27:04,VALID,998.809,VALID,0,VALID,92.3718,VALID,0,VALID,23.6036,VALID,83,VALID,0,
2011-03-15, 01:28:04,VALID,998.834,VALID,0,VALID,92.3794,VALID,0,VALID,23.6036,VALID,83,VALID,0,
2011-03-15, 01:29:04,VALID,998.796,VALID,0,VALID,92.3718,VALID,0,VALID,23.6036,VALID,83,VALID,0.458594,
2011-03-15, 01:30:04,VALID,998.743,VALID,0,VALID,92.3794,VALID,0,VALID,23.6036,VALID,83,VALID,0.56875,
2011-03-15, 01:31:04,VALID,998.737,VALID,0,VALID,92.3642,VALID,0,VALID,23.6232,VALID,83,VALID,0.529688,
2011-03-15, 01:32:04,VALID,998.728,VALID,0,VALID,92.3489,VALID,0,VALID,23.6445,VALID,83,VALID,0.608594,
2011-03-15, 01:33:04,VALID,998.673,VALID,0,VALID,92.3337,VALID,0,VALID,23.6232,VALID,83,VALID,0.675781,
2011-03-15, 01:34:04,VALID,998.634,VALID,0,VALID,92.3184,VALID,0,VALID,23.6232,VALID,83,VALID,0.610547,
2011-03-15, 01:35:04,VALID,998.64,VALID,0,VALID,92.3337,VALID,0,VALID,23.6427,VALID,83,VALID,0.658594,
2011-03-15, 01:36:04,VALID,998.608,VALID,0,VALID,92.3184,VALID,0,VALID,23.6232,VALID,83,VALID,0.61875,
2011-03-15, 01:37:04,VALID,998.616,VALID,0,VALID,92.3108,VALID,0,VALID,23.6036,VALID,83,VALID,0.614453,
2011-03-15, 01:38:04,VALID,998.61,VALID,0,VALID,92.3031,VALID,0,VALID,23.6036,VALID,68,VALID,0.701953,
2011-03-15, 01:39:04,VALID,998.612,VALID,0,VALID,92.3108,VALID,0,VALID,23.5841,VALID,68,VALID,0.677344,
2011-03-15, 01:40:04,VALID,998.583,VALID,0,VALID,92.3108,VALID,0,VALID,23.5841,VALID,68,VALID,0.587109,
2011-03-15, 01:41:04,VALID,998.593,VALID,0,VALID,92.2955,VALID,0,VALID,23.5841,VALID,68,VALID,0.603516,
2011-03-15, 01:42:05,VALID,998.583,VALID,0,VALID,92.3108,VALID,0,VALID,23.5841,VALID,68,VALID,0.526563,
2011-03-15, 01:43:05,VALID,998.569,VALID,0,VALID,92.326,VALID,0,VALID,23.5841,VALID,68,VALID,0.537891,
2011-03-15, 01:44:05,VALID,998.572,VALID,0,VALID,92.3413,VALID,0,VALID,23.5841,VALID,68,VALID,0.451172,
2011-03-15, 01:45:05,VALID,998.547,VALID,0,VALID,92.3489,VALID,0,VALID,23.5841,VALID,68,VALID,0.296094,
2011-03-15, 01:46:05,VALID,998.518,VALID,0,VALID,92.3489,VALID,0,VALID,23.5841,VALID,68,VALID,0.140234,
2011-03-15, 01:47:05,VALID,998.483,VALID,0,VALID,92.3642,VALID,0,VALID,23.5841,VALID,68,VALID,0,
2011-03-15, 01:48:05,VALID,998.443,VALID,0,VALID,92.3566,VALID,0,VALID,23.5628,VALID,68,VALID,0,
2011-03-15, 01:49:05,VALID,998.464,VALID,0,VALID,92.3566,VALID,0,VALID,23.5646,VALID,68,VALID,0,
2011-03-15, 01:50:05,VALID,998.407,VALID,0,VALID,92.3413,VALID,0,VALID,23.5451,VALID,68,VALID,0,
2011-03-15, 01:51:05,VALID,998.39,VALID,0,VALID,92.3413,VALID,0,VALID,23.5646,VALID,68,VALID,0.155469,
2011-03-15, 01:52:05,VALID,998.392,VALID,0,VALID,92.3642,VALID,0,VALID,23.5646,VALID,68,VALID,0.127344,
2011-03-15, 01:53:05,VALID,998.355,VALID,0,VALID,92.3642,VALID,0,VALID,23.5646,VALID,68,VALID,0,
2011-03-15, 01:54:05,VALID,998.358,VALID,0,VALID,92.3718,VALID,0,VALID,23.5628,VALID,116,VALID,0.360156,
2011-03-15, 01:55:05,VALID,998.372,VALID,0,VALID,92.3794,VALID,0,VALID,23.6036,VALID,116,VALID,0.258594,
2011-03-15, 01:56:05,VALID,998.33,VALID,0,VALID,92.3718,VALID,0,VALID,23.6036,VALID,116,VALID,0.0046875,
2011-03-15, 01:57:05,VALID,998.317,VALID,0,VALID,92.3794,VALID,0,VALID,23.5841,VALID,116,VALID,0.00429688,
2011-03-15, 01:58:05,VALID,998.312,VALID,0,VALID,92.3794,VALID,0,VALID,23.5841,VALID,116,VALID,0,
2011-03-15, 01:59:05,VALID,998.312,VALID,0,VALID,92.3718,VALID,0,VALID,23.5841,VALID,116,VALID,0,
2011-03-15, 02:00:05,VALID,998.271,VALID,0,VALID,92.3642,VALID,0,VALID,23.5841,VALID,116,VALID,0.0148437,
2011-03-15, 02:01:05,VALID,998.282,VALID,0,VALID,92.3489,VALID,0,VALID,23.5841,VALID,116,VALID,0,
2011-03-15, 02:02:05,VALID,998.288,VALID,0,VALID,92.3489,VALID,0,VALID,23.5841,VALID,116,VALID,0.232812,
2011-03-15, 02:03:05,VALID,998.256,VALID,0,VALID,92.3337,VALID,0,VALID,23.5841,VALID,116,VALID,0.387891,
2011-03-15, 02:04:05,VALID,998.247,VALID,0,VALID,92.3337,VALID,0,VALID,23.5628,VALID,116,VALID,0.392188,
2011-03-15, 02:05:05,VALID,998.258,VALID,0,VALID,92.3184,VALID,0,VALID,23.5628,VALID,116,VALID,0.14375,
2011-03-15, 02:06:05,VALID,998.213,VALID,0,VALID,92.3184,VALID,0,VALID,23.5628,VALID,116,VALID,0,
2011-03-15, 02:07:05,VALID,998.175,VALID,0,VALID,92.2803,VALID,0,VALID,23.5841,VALID,116,VALID,0.265234,
2011-03-15, 02:08:05,VALID,998.173,VALID,0,VALID,92.2574,VALID,0,VALID,23.5841,VALID,116,VALID,0.477734,
2011-03-15, 02:09:05,VALID,998.16,VALID,0,VALID,92.2421,VALID,0,VALID,23.5823,VALID,116,VALID,0.230078,
2011-03-15, 02:10:05,VALID,998.115,VALID,0,VALID,92.2192,VALID,0,VALID,23.5841,VALID,116,VALID,0.410156,
2011-03-15, 02:11:05,VALID,998.088,VALID,0,VALID,92.1963,VALID,0,VALID,23.6036,VALID,116,VALID,0.31875,
2011-03-15, 02:12:05,VALID,998.066,VALID,0,VALID,92.1811,VALID,0,VALID,23.6036,VALID,116,VALID,0.497656,
2011-03-15, 02:13:05,VALID,998.082,VALID,0,VALID,92.1658,VALID,0,VALID,23.6019,VALID,116,VALID,0.537109,
2011-03-15, 02:14:05,VALID,998.06,VALID,0,VALID,92.1429,VALID,0,VALID,23.6214,VALID,116,VALID,0.508594,
2011-03-15, 02:15:05,VALID,998.046,VALID,0,VALID,92.1277,VALID,0,VALID,23.6232,VALID,116,VALID,0.460156,
2011-03-15, 02:16:05,VALID,998.027,VALID,0,VALID,92.1124,VALID,0,VALID,23.6232,VALID,116,VALID,0.387891,
2011-03-15, 02:17:05,VALID,998.013,VALID,0,VALID,92.1048,VALID,0,VALID,23.6036,VALID,116,VALID,0.297656,
2011-03-15, 02:18:05,VALID,998.004,VALID,0,VALID,92.0971,VALID,0,VALID,23.6036,VALID,116,VALID,0.387891,
2011-03-15, 02:19:05,VALID,997.979,VALID,0,VALID,92.0895,VALID,0,VALID,23.6036,VALID,116,VALID,0.421484,
2011-03-15, 02:20:05,VALID,997.948,VALID,0,VALID,92.0666,VALID,0,VALID,23.6054,VALID,116,VALID,0.48125,
2011-03-15, 02:21:05,VALID,997.921,VALID,0,VALID,92.0819,VALID,0,VALID,23.5646,VALID,86,VALID,0.530859,
2011-03-15, 02:22:05,VALID,997.928,VALID,0,VALID,92.0743,VALID,0,VALID,23.5433,VALID,70,VALID,0.698438,
2011-03-15, 02:23:05,VALID,997.908,VALID,0,VALID,92.0895,VALID,0,VALID,23.5646,VALID,68,VALID,0.60625,
2011-03-15, 02:24:05,VALID,997.926,VALID,0,VALID,92.0666,VALID,0,VALID,23.5646,VALID,68,VALID,0.567578,
2011-03-15, 02:25:05,VALID,997.899,VALID,0,VALID,92.0666,VALID,0,VALID,23.5451,VALID,64,VALID,0.623047,
2011-03-15, 02:26:05,VALID,997.869,VALID,0,VALID,92.0285,VALID,0,VALID,23.5451,VALID,64,VALID,0.479297,
2011-03-15, 02:27:05,VALID,997.891,VALID,0,VALID,92.0361,VALID,0,VALID,23.5256,VALID,64,VALID,0.289453,
2011-03-15, 02:28:05,VALID,997.893,VALID,0,VALID,92.0209,VALID,0,VALID,23.5061,VALID,64,VALID,0,
2011-03-15, 02:29:05,VALID,997.886,VALID,0,VALID,92.0132,VALID,0,VALID,23.5061,VALID,64,VALID,0,
2011-03-15, 02:30:05,VALID,997.872,VALID,0,VALID,92.0285,VALID,0,VALID,23.5061,VALID,64,VALID,0,
2011-03-15, 02:31:05,VALID,997.836,VALID,0,VALID,92.0285,VALID,0,VALID,23.5061,VALID,64,VALID,0,
2011-03-15, 02:32:05,VALID,997.807,VALID,0,VALID,92.0437,VALID,0,VALID,23.5061,VALID,64,VALID,0,
2011-03-15, 02:33:05,VALID,997.791,VALID,0,VALID,92.059,VALID,0,VALID,23.5061,VALID,64,VALID,0,
2011-03-15, 02:34:05,VALID,997.79,VALID,0,VALID,92.0514,VALID,0,VALID,23.4848,VALID,64,VALID,0,
2011-03-15, 02:35:05,VALID,997.756,VALID,0,VALID,92.0743,VALID,0,VALID,23.5061,VALID,64,VALID,0.232812,
2011-03-15, 02:36:05,VALID,997.734,VALID,0,VALID,92.0971,VALID,0,VALID,23.5061,VALID,64,VALID,0.119531,
2011-03-15, 02:37:05,VALID,997.712,VALID,0,VALID,92.0895,VALID,0,VALID,23.5061,VALID,64,VALID,0.102344,
2011-03-15, 02:38:05,VALID,997.706,VALID,0,VALID,92.0895,VALID,0,VALID,23.4866,VALID,64,VALID,0,
2011-03-15, 02:39:05,VALID,997.694,VALID,0,VALID,92.0743,VALID,0,VALID,23.4671,VALID,64,VALID,0,
2011-03-15, 02:40:05,VALID,997.675,VALID,0,VALID,92.0971,VALID,0,VALID,23.4866,VALID,64,VALID,0.347656,
2011-03-15, 02:41:05,VALID,997.692,VALID,0,VALID,92.1353,VALID,0,VALID,23.4671,VALID,64,VALID,0.331641,
2011-03-15, 02:42:05,VALID,997.672,VALID,0,VALID,92.1277,VALID,0,VALID,23.4671,VALID,64,VALID,0,
2011-03-15, 02:43:05,VALID,997.667,VALID,0,VALID,92.1582,VALID,0,VALID,23.4671,VALID,64,VALID,0.0375,
2011-03-15, 02:44:05,VALID,997.707,VALID,0,VALID,92.1734,VALID,0,VALID,23.4671,VALID,64,VALID,0,
2011-03-15, 02:45:05,VALID,997.697,VALID,0,VALID,92.1963,VALID,0,VALID,23.4458,VALID,64,VALID,0.213672,
2011-03-15, 02:46:05,VALID,997.68,VALID,0,VALID,92.1811,VALID,0,VALID,23.4067,VALID,64,VALID,0.248828,
2011-03-15, 02:47:05,VALID,997.686,VALID,0,VALID,92.2116,VALID,0,VALID,23.4263,VALID,64,VALID,0.296094,
2011-03-15, 02:48:05,VALID,997.682,VALID,0,VALID,92.2574,VALID,0,VALID,23.4475,VALID,64,VALID,0.266797,
2011-03-15, 02:49:05,VALID,997.683,VALID,0,VALID,92.265,VALID,0,VALID,23.4475,VALID,64,VALID,0.342578,
2011-03-15, 02:50:05,VALID,997.645,VALID,0,VALID,92.3108,VALID,0,VALID,23.4671,VALID,104,VALID,0.414063,
2011-03-15, 02:51:05,VALID,997.688,VALID,0,VALID,92.3108,VALID,0,VALID,23.4475,VALID,104,VALID,0.345703,
2011-03-15, 02:52:05,VALID,997.647,VALID,0,VALID,92.3413,VALID,0,VALID,23.4458,VALID,104,VALID,0.501172,
2011-03-15, 02:53:05,VALID,997.666,VALID,0,VALID,92.3489,VALID,0,VALID,23.4458,VALID,104,VALID,0.401953,
2011-03-15, 02:54:05,VALID,997.685,VALID,0,VALID,92.3413,VALID,0,VALID,23.4866,VALID,104,VALID,0.355859,
2011-03-15, 02:55:05,VALID,997.675,VALID,0,VALID,92.3413,VALID,0,VALID,23.4653,VALID,104,VALID,0.498828,
2011-03-15, 02:56:05,VALID,997.665,VALID,0,VALID,92.3413,VALID,0,VALID,23.5061,VALID,104,VALID,0.294922,
2011-03-15, 02:57:05,VALID,997.647,VALID,0,VALID,92.326,VALID,0,VALID,23.5256,VALID,104,VALID,0.435937,
2011-03-15, 02:58:05,VALID,997.649,VALID,0,VALID,92.2955,VALID,0,VALID,23.5451,VALID,104,VALID,0.261328,
2011-03-15, 02:59:05,VALID,997.607,VALID,0,VALID,92.2726,VALID,0,VALID,23.5238,VALID,104,VALID,0,
2011-03-15, 03:00:05,VALID,997.626,VALID,0,VALID,92.2192,VALID,0,VALID,23.5646,VALID,104,VALID,0,
2011-03-15, 03:01:05,VALID,997.598,VALID,0,VALID,92.1734,VALID,0,VALID,23.5451,VALID,104,VALID,0,
2011-03-15, 03:02:05,VALID,997.598,VALID,0,VALID,92.1429,VALID,0,VALID,23.5646,VALID,104,VALID,0,
2011-03-15, 03:03:05,VALID,997.594,VALID,0,VALID,92.0895,VALID,0,VALID,23.5646,VALID,104,VALID,0,
2011-03-15, 03:04:05,VALID,997.594,VALID,0,VALID,92.0895,VALID,0,VALID,23.5646,VALID,104,VALID,0,
2011-03-15, 03:05:05,VALID,997.59,VALID,0,VALID,92.0361,VALID,0,VALID,23.5646,VALID,104,VALID,0,
2011-03-15, 03:06:05,VALID,997.603,VALID,0,VALID,92.0361,VALID,0,VALID,23.5433,VALID,104,VALID,0,
2011-03-15, 03:07:05,VALID,997.591,VALID,0,VALID,92.0132,VALID,0,VALID,23.5043,VALID,104,VALID,0,
2011-03-15, 03:08:05,VALID,997.568,VALID,0,VALID,91.9751,VALID,0,VALID,23.5043,VALID,104,VALID,0,
2011-03-15, 03:09:05,VALID,997.605,VALID,0,VALID,91.9751,VALID,0.112286,VALID,23.4848,VALID,104,VALID,0,
2011-03-15, 03:10:05,VALID,997.611,VALID,0,VALID,91.9751,VALID,0,VALID,23.5061,VALID,104,VALID,0.3375,
2011-03-15, 03:11:05,VALID,997.607,VALID,0,VALID,91.9445,VALID,0,VALID,23.4866,VALID,104,VALID,0.633203,
2011-03-15, 03:12:05,VALID,997.62,VALID,0,VALID,91.9369,VALID,0,VALID,23.4653,VALID,104,VALID,0.734766,
2011-03-15, 03:13:05,VALID,997.646,VALID,0,VALID,91.914,VALID,0,VALID,23.4653,VALID,113,VALID,0.705859,
2011-03-15, 03:14:05,VALID,997.669,VALID,0,VALID,91.8911,VALID,0,VALID,23.5274,VALID,113,VALID,0.805859,
2011-03-15, 03:15:05,VALID,997.696,VALID,0,VALID,91.8377,VALID,0,VALID,23.5061,VALID,126,VALID,0.817969,
2011-03-15, 03:16:05,VALID,997.716,VALID,0,VALID,91.7843,VALID,0,VALID,23.5274,VALID,129,VALID,0.907422,
2011-03-15, 03:17:05,VALID,997.716,VALID,0,VALID,91.7538,VALID,0,VALID,23.5274,VALID,129,VALID,1.01367,
2011-03-15, 03:18:05,VALID,997.732,VALID,0,VALID,91.7157,VALID,0,VALID,23.5274,VALID,129,VALID,1.02461,
2011-03-15, 03:19:05,VALID,997.732,VALID,0,VALID,91.6775,VALID,0,VALID,23.5274,VALID,129,VALID,0.919922,
2011-03-15, 03:20:05,VALID,997.717,VALID,0,VALID,91.6851,VALID,0,VALID,23.5061,VALID,129,VALID,0.783203,
2011-03-15, 03:21:05,VALID,997.734,VALID,0,VALID,91.6699,VALID,0,VALID,23.5256,VALID,129,VALID,0.546484,
2011-03-15, 03:22:05,VALID,997.707,VALID,0,VALID,91.6394,VALID,0,VALID,23.5274,VALID,129,VALID,0.471484,
2011-03-15, 03:23:05,VALID,997.712,VALID,0,VALID,91.6317,VALID,0,VALID,23.5274,VALID,129,VALID,0.317187,
2011-03-15, 03:24:05,VALID,997.722,VALID,0,VALID,91.6317,VALID,0,VALID,23.5274,VALID,129,VALID,0.236328,
2011-03-15, 03:25:05,VALID,997.665,VALID,0,VALID,91.6546,VALID,0,VALID,23.5079,VALID,129,VALID,0.301172,
2011-03-15, 03:26:05,VALID,997.677,VALID,0,VALID,91.6623,VALID,0,VALID,23.5487,VALID,129,VALID,0.246875,
2011-03-15, 03:27:05,VALID,997.673,VALID,0,VALID,91.6851,VALID,0,VALID,23.5274,VALID,129,VALID,0,
2011-03-15, 03:28:05,VALID,997.684,VALID,0,VALID,91.6928,VALID,0,VALID,23.5274,VALID,129,VALID,0,
2011-03-15, 03:29:05,VALID,997.672,VALID,0,VALID,91.7233,VALID,0,VALID,23.5256,VALID,129,VALID,0,
2011-03-15, 03:30:05,VALID,997.68,VALID,0,VALID,91.7157,VALID,0,VALID,23.5061,VALID,129,VALID,0,
2011-03-15, 03:31:05,VALID,997.737,VALID,0,VALID,91.7157,VALID,0,VALID,23.5061,VALID,129,VALID,0,
2011-03-15, 03:32:05,VALID,997.749,VALID,0,VALID,91.7538,VALID,0,VALID,23.4653,VALID,129,VALID,0,
2011-03-15, 03:33:05,VALID,997.79,VALID,0,VALID,91.7767,VALID,0,VALID,23.4653,VALID,129,VALID,0,
2011-03-15, 03:34:05,VALID,997.766,VALID,0,VALID,91.7996,VALID,0,VALID,23.4653,VALID,129,VALID,0.326562,
2011-03-15, 03:35:05,VALID,997.786,VALID,0,VALID,91.853,VALID,0,VALID,23.4866,VALID,129,VALID,0.344531,
2011-03-15, 03:36:05,VALID,997.835,VALID,0,VALID,91.8759,VALID,0,VALID,23.4866,VALID,129,VALID,0.638672,
2011-03-15, 03:37:05,VALID,997.851,VALID,0,VALID,91.8835,VALID,0,VALID,23.4458,VALID,129,VALID,0.585938,
2011-03-15, 03:38:05,VALID,997.858,VALID,0,VALID,91.8454,VALID,0,VALID,23.4671,VALID,129,VALID,0.616406,
2011-03-15, 03:39:05,VALID,997.88,VALID,0,VALID,91.8148,VALID,0,VALID,23.4671,VALID,129,VALID,0.422266,
2011-03-15, 03:40:05,VALID,997.869,VALID,0,VALID,91.8454,VALID,0,VALID,23.4671,VALID,129,VALID,0.472266,
2011-03-15, 03:41:05,VALID,997.914,VALID,0,VALID,91.8148,VALID,0,VALID,23.4866,VALID,119,VALID,0.588281,
2011-03-15, 03:42:05,VALID,997.909,VALID,0,VALID,91.8148,VALID,0,VALID,23.4671,VALID,99,VALID,0.875391,
2011-03-15, 03:43:05,VALID,997.934,VALID,0,VALID,91.7691,VALID,0,VALID,23.4671,VALID,99,VALID,0.709375,
2011-03-15, 03:44:05,VALID,997.955,VALID,0,VALID,91.7767,VALID,0,VALID,23.4475,VALID,99,VALID,0.609375,
2011-03-15, 03:45:05,VALID,997.97,VALID,0,VALID,91.7691,VALID,0,VALID,23.4671,VALID,99,VALID,0.537891,
2011-03-15, 03:46:05,VALID,997.946,VALID,0,VALID,91.792,VALID,0,VALID,23.4458,VALID,99,VALID,0.392188,
2011-03-15, 03:47:05,VALID,997.997,VALID,0,VALID,91.8301,VALID,0,VALID,23.4671,VALID,99,VALID,0.415234,
2011-03-15, 03:48:05,VALID,997.968,VALID,0,VALID,91.8377,VALID,0,VALID,23.4263,VALID,99,VALID,0.276563,